Other Public Products
Issued by NWS Grand Forks, ND

Home | Current Version | Previous Version | Text Only | Print | Product List | Glossary On
Versions: 1 2 3 4 5 6 7 8 9 10 11 12 13 14 15 16 17 18 19 20 21 22 23 24 25 26 27 28 29 30 31 32 33 34 35 36 37 38 39 40 41 42 43 44 45 46 47 48 49 50
000
FPUS83 KFGF 180331
OPUFGF
PRAIRIE TO PINES WEATHER ROUNDUP
NATIONAL WEATHER SERVICE EASTERN NORTH DAKOTA/GRAND FORKS ND
1000 PM CDT FRI APR 17 2015

 **SATELLITE DATA USED TO AUGMENT SKY COVER AT AUTOMATED STATIONS**
 *****  WEATHER ACROSS EASTERN NORTH DAKOTA  *****

CITY           SKY/WX    TMP DP  RH WIND       PRES   REMARKS
GRAND FORKS    CLEAR     45  29  53 NE7       30.11R
GRAND FORKS AF CLEAR     46  25  44 NE10      30.12R
GRAND CITY NWS   N/A     50 N/A N/A NE7         N/A
BUXTON           N/A     54  20  27 CALM        N/A
DEVILS LAKE    CLEAR     48  25  40 NE8       30.14R
FARGO          CLEAR     58  17  20 N12       30.07R
WAHPETON ARPT  PTCLDY    61  25  25 N14       30.05R
$$

 *****  WEATHER ACROSS CENTRAL AND WESTERN NORTH DAKOTA  *****

CITY           SKY/WX    TMP DP  RH WIND       PRES   REMARKS
JAMESTOWN      PTCLDY    55  26  32 NE16      30.09R
BISMARCK       PTCLDY    53  30  41 NE9       30.09R
MINOT          CLEAR     42  23  46 N6        30.11S
MINOT AFB      CLEAR     52  26  37 NE3       30.11R
GARRISON         N/A     53  29  39 NE7       30.09R
WILLISTON      CLEAR     56  24  29 NE9       30.07R
DICKINSON      PTCLDY    49  22  34 S7        30.07R
HETTINGER      CLOUDY    53  21  28 E5        30.10R
$$

 *****  OTHER OBSERVATIONS NORTHEAST NORTH DAKOTA  *****

CITY           SKY/WX    TMP DP  RH WIND       PRES   REMARKS
WALHALLA       FAIR      46  28  49 E6        30.18R
LANGDON        FAIR      45  27  49 NE10      30.16R
CAVALIER       FAIR      46  32  57 NE8       30.16S
GRAFTON        FAIR      48  30  49 NE9       30.15R
CANDO          FAIR      46  27  46 E9        30.16R
FORT TOTTEN    NOT AVBL
ROLLA          FAIR      41  27  56 E3        30.17R
RUGBY          FAIR      45  30  57 E14       30.14R
 ***** THE ABOVE OBSERVATIONS ARE NON NWS ARE NOT QUALITY
        CONTROLLED AND MAY MIS-REPORT RAIN FOR SNOW...
$$

 *****  OTHER OBSERVATIONS SOUTHEAST NORTH DAKOTA *****

CITY           SKY/WX    TMP DP  RH WIND       PRES   REMARKS
COOPERSTOWN    NOT AVBL
VALLEY CITY    FAIR      54  19  26 NE12      30.10R
OAKES            N/A     55  19  24 CALM      30.06R
GWINNER        CLEAR     52  23  32 NE15      30.08R
SHEYENNE NWR     N/A     60  25  26 NE12      29.95S
BUFFALO        NOT AVBL
WYNDMERE         N/A     59  21  23 N9          N/A
 ***** THE ABOVE OBSERVATIONS ARE NON NWS ARE NOT QUALITY
       CONTROLLED AND MAY MIS-REPORT RAIN FOR SNOW...
$$

  *****  WEATHER ACROSS NORTHERN MINNESOTA  *****

CITY           SKY/WX    TMP DP  RH WIND       PRES   REMARKS
FLAG ISLAND    CLEAR     45  30  57 NE14      30.14R
WARROAD        CLEAR     45  34  65 NE6       30.15R
ROSEAU         CLEAR     39  28  65 N7        30.14R
HALLOCK        CLEAR     48  30  49 NE6       30.15R
THF RVR FALLS  CLEAR     50  27  40 N8        30.13R
HALSTAD          N/A     48   9  20 NE6         N/A
FOSSTON        CLEAR     48  19  32 N9        30.11R
BAUDETTE       CLEAR     47  30  51 NE9       30.12R
WASKISH        CLEAR     48  28  46 CALM      30.11R
CROOKSTON      CLEAR     50  28  43 NE10      30.13R
$$
  *****  WEATHER ACROSS CENTRAL AND WEST MINNESOTA  *****

CITY           SKY/WX    TMP DP  RH WIND       PRES   REMARKS
BEMIDJI        CLEAR     52  22  31 N7        30.10R
PARK RAPIDS    PTCLDY    61  24  24 N10       30.05R
WADENA         PTCLDY    57  30  35 N10       30.06R
DETROIT LAKES  PTCLDY    57  28  33 NE7       30.08R
MOORHEAD       CLEAR     54  21  28 N9        30.08R
FERGUS FALLS   PTCLDY    55  16  21 NE5       30.06R
ELBOW LAKE     FAIR      55  38  51 CALM      30.04S
MORRIS MN      CLEAR     54  21  28 W5        30.05R
STAPLES        PTCLDY    52  23  32 NW8G21    30.05R
WHEATON        CLEAR     55  19  24 SW6       30.06S
$$
  *****  WEATHER ELSEWHERE ACROSS MINNESOTA  *****

CITY           SKY/WX    TMP DP  RH WIND       PRES   REMARKS
DULUTH         CLEAR     60  23  24 NW8       30.01R
INTRNTL FALLS  CLEAR     48  29  47 N8        30.11R
ELY            CLEAR     54  25  32 N6        30.06R
CLOQUET        CLEAR     52  19  28 NW13G22   30.03R
BRAINERD       PTCLDY    54  24  31 SW3       30.03S
HIBBING        CLEAR     57  20  23 N12       30.04R
ALEXANDRIA     PTCLDY    55  28  35 S3        30.06R
SAINT CLOUD    CLEAR     55  24  30 CALM      30.03S
MINNEAPOLIS    PTCLDY    65  26  23 CALM      30.03R
$$

  *****  WEATHER ACROSS SOUTH DAKOTA  *****

CITY           SKY/WX    TMP DP  RH WIND       PRES   REMARKS
SIOUX FALLS    CLOUDY    65  33  30 CALM      30.04R
BROOKINGS      PTCLDY    54  25  32 N5        30.08R
WATERTOWN      MOCLDY    56  20  24 CALM      30.08R
HURON          MOCLDY    55  25  31 NE5       30.06R
SISSETON         N/A     49  25  39 W5        30.05R
ABERDEEN       PTCLDY    50  23  34 N5        30.06S
MITCHELL       CLOUDY    63  34  33 CALM      30.05R
PIERRE         CLOUDY    59  45  59 W10       30.07R
MOBRIDGE       MOCLDY    51  26  37 CALM      30.06R
RAPID CITY     LGT RAIN  48  44  86 SW9       30.12S
$$

  *****  SOME WEATHER IN NEARBY STATES *****

CITY           SKY/WX    TMP DP  RH WIND       PRES   REMARKS
GLASGOW MT     CLEAR     51  26  37 SE9       29.99F
GREAT FALLS MT CLEAR     56  32  40 SE7       29.96S
CHEYENNE WY    FOG       33  31  92 N17G25    30.06R VSB 1   WCI  22
SCOTTSBLUFF NE CLOUDY    43  43 100 W7        30.05R
OMAHA NE       MOCLDY    68  54  60 SE3       29.99R
DES MOINES IA  MOCLDY    70  51  51 CALM      30.01R
DAVENPORT IA   PTCLDY    64  46  52 CALM      30.02R
CHICAGO IL     PTCLDY    61  46  57 S5        30.01R
EAU CLAIRE WI  PTCLDY    57  30  35 CALM      30.02R
LA CROSSE WI   PTCLDY    64  49  57 CALM      30.00R
$$

  *****  SOME NATIONAL WEATHER *****

CITY           SKY/WX    TMP DP  RH WIND       PRES   REMARKS
LA GUARDIA NY  MOCLDY    64  51  62 N7        29.96R
RALEIGH NC     CLOUDY    66  62  87 SW3       30.02S
ATLANTA GA     LGT RAIN  63  60  90 E7        30.03F FOG
NEW ORLEANS LA CLOUDY    75  70  84 SE3       29.94R
OKLAHOMA CITY  CLOUDY    65  58  78 SW3       29.95R
ALBUQUERQUE NM CLOUDY    49  21  33 N8        30.05R
SALT LAKE CITY MOCLDY    55  37  50 SE6       30.01S
LOS ANGELES CA CLEAR     65  46  50 W15       29.98R
BOISE ID       CLEAR     64  29  26 W6        30.00S
SEATTLE WA     PTCLDY    56  43  61 N8        30.25S
$$

*** WEATHER ACROSS MANITOBA...SASKATCHEWAN AND ONTARIO ***
                ***ONTARIO***

CITY           SKY/WX    TMP DP  RH WIND       PRES   REMARKS
GERALDTON      CLOUDY    39  37  93 N13G24    29.98R
THUNDER BAY    CLEAR     54  34  47 N13G26    30.01R
SIOUX LOOKOUT  CLEAR     36  30  80 N3        30.15R
TORONTO        CLEAR     57  39  51 NW6       29.99F
BIG TROUT LK   CLEAR     28  27  93 N3        30.10R
PICKLE LAKE    NOT AVBL
DRYDEN         CLEAR     39  30  70 N7        30.14S
KENORA         CLEAR     41  28  60 NE7       30.17R
$$
                *** MANITOBA***

CITY           SKY/WX    TMP DP  RH WIND       PRES   REMARKS
BRANDON        PTCLDY    43  32  65 E9        30.16R
DAUPHIN        CLEAR     39  32  75 SE7       30.16S
ISLAND LAKE    PTCLDY    36  34  93 NE3       30.15R
PILOT MOUND      N/A     41  28  60 NE8         N/A
THE PAS        CLOUDY    45  32  61 SE10      30.11S
THOMPSON       PTCLDY    41  25  52 VRB2      30.13R
WINNIPEG       PTCLDY    41  30  65 NE9       30.17R
LYNN LAKE      MOCLDY    41  23  48 SE6       30.06S
CHURCHILL      CLEAR     19  14  79 NW8       30.20  WCI   9
GILLAM         CLEAR     32  30  93 S5        30.15R
$$
                ***SASKATCHEWAN***

CITY           SKY/WX    TMP DP  RH WIND       PRES   REMARKS
ESTEVAN        CLEAR     45  30  57 SE8       30.11R
KINDERSLEY     MOCLDY    54  28  37 SE12      29.83F
LLOYDMINSTER   LGT RAIN  55  36  47 S10G18    29.85R
PRINCE ALBERT  MOCLDY    48  23  37 SE9       30.01S
REGINA         CLEAR     50  28  43 E13       30.06F



USA.gov is the U.S. government's official web portal to all federal, state and local government web resources and services.